Time,TemperatureF,DewpointF,PressureIn,WindDirection,WindDirectionDegrees,WindSpeedMPH,WindSpeedGustMPH,Humidity,HourlyPrecipIn,Conditions,Clouds,dailyrainin,SoftwareType,DateUTC
2013-04-20 00:06:00,40.9,30.0,30.06,WNW,297,0.0,6.0,65,0.00,,,0.00,weatherlink.com 1.10,2013-04-20 05:06:00,
2013-04-20 00:21:00,40.4,30.0,30.06,West,259,1.0,3.0,67,0.00,,,0.00,weatherlink.com 1.10,2013-04-20 05:21:00,
2013-04-20 00:36:00,39.8,30.0,30.07,WSW,255,1.0,2.0,68,0.00,,,0.00,weatherlink.com 1.10,2013-04-20 05:36:00,
2013-04-20 00:52:00,39.5,30.0,30.08,NNW,338,0.0,5.0,69,0.00,,,0.00,weatherlink.com 1.10,2013-04-20 05:52:00,
2013-04-20 01:07:00,39.7,30.0,30.08,North,356,6.0,6.0,68,0.00,,,0.00,weatherlink.com 1.10,2013-04-20 06:07:00,
2013-04-20 01:22:00,40.5,29.0,30.08,NNW,339,3.0,7.0,65,0.00,,,0.00,weatherlink.com 1.10,2013-04-20 06:22:00,
2013-04-20 01:37:00,40.8,29.0,30.08,NW,323,4.0,7.0,63,0.00,,,0.00,weatherlink.com 1.10,2013-04-20 06:37:00,
2013-04-20 01:52:00,40.5,29.0,30.09,NW,326,2.0,8.0,63,0.00,,,0.00,weatherlink.com 1.10,2013-04-20 06:52:00,
2013-04-20 02:07:00,38.9,29.0,30.09,North,5,0.0,1.0,67,0.00,,,0.00,weatherlink.com 1.10,2013-04-20 07:07:00,
2013-04-20 02:22:00,37.7,28.0,30.09,North,5,0.0,2.0,69,0.00,,,0.00,weatherlink.com 1.10,2013-04-20 07:22:00,
2013-04-20 02:37:00,37.3,29.0,30.10,NW,311,0.0,2.0,71,0.00,,,0.00,weatherlink.com 1.10,2013-04-20 07:37:00,
2013-04-20 02:52:00,37.4,28.0,30.10,NNW,338,2.0,2.0,70,0.00,,,0.00,weatherlink.com 1.10,2013-04-20 07:52:00,
2013-04-20 03:07:00,38.1,29.0,30.11,NNW,347,2.0,5.0,69,0.00,,,0.00,weatherlink.com 1.10,2013-04-20 08:07:00,
2013-04-20 03:22:00,37.9,29.0,30.11,North,8,2.0,6.0,70,0.00,,,0.00,weatherlink.com 1.10,2013-04-20 08:22:00,
2013-04-20 03:37:00,36.2,29.0,30.12,NNE,33,0.0,1.0,74,0.00,,,0.00,weatherlink.com 1.10,2013-04-20 08:37:00,
2013-04-20 03:52:00,34.9,28.0,30.12,NNE,33,0.0,1.0,77,0.00,,,0.00,weatherlink.com 1.10,2013-04-20 08:52:00,
2013-04-20 04:07:00,33.2,29.0,30.13,NE,34,0.0,1.0,85,0.00,,,0.00,weatherlink.com 1.10,2013-04-20 09:07:00,
2013-04-20 04:22:00,33.0,28.0,30.14,North,6,0.0,1.0,82,0.00,,,0.00,weatherlink.com 1.10,2013-04-20 09:22:00,
2013-04-20 04:37:00,32.6,28.0,30.14,North,6,0.0,1.0,82,0.00,,,0.00,weatherlink.com 1.10,2013-04-20 09:37:00,
2013-04-20 04:52:00,32.0,28.0,30.14,North,6,0.0,1.0,86,0.00,,,0.00,weatherlink.com 1.10,2013-04-20 09:52:00,
2013-04-20 05:07:00,31.8,28.0,30.15,NNW,338,1.0,2.0,84,0.00,,,0.00,weatherlink.com 1.10,2013-04-20 10:07:00,
2013-04-20 05:22:00,33.1,28.0,30.15,North,349,0.0,3.0,80,0.00,,,0.00,weatherlink.com 1.10,2013-04-20 10:22:00,
2013-04-20 05:37:00,31.2,27.0,30.16,North,349,0.0,0.0,83,0.00,,,0.00,weatherlink.com 1.10,2013-04-20 10:37:00,
2013-04-20 05:52:00,30.2,27.0,30.17,North,350,0.0,0.0,86,0.00,,,0.00,weatherlink.com 1.10,2013-04-20 10:52:00,
2013-04-20 06:08:00,29.6,27.0,30.18,North,349,0.0,1.0,88,0.00,,,0.00,weatherlink.com 1.10,2013-04-20 11:08:00,
2013-04-20 06:23:00,29.6,27.0,30.19,North,350,0.0,0.0,89,0.00,,,0.00,weatherlink.com 1.10,2013-04-20 11:23:00,
2013-04-20 06:38:00,29.5,27.0,30.19,North,9,0.0,1.0,91,0.00,,,0.00,weatherlink.com 1.10,2013-04-20 11:38:00,
2013-04-20 06:53:00,29.5,27.0,30.20,North,9,0.0,0.0,91,0.00,,,0.00,weatherlink.com 1.10,2013-04-20 11:53:00,
2013-04-20 07:08:00,31.1,29.0,30.20,North,9,0.0,0.0,92,0.00,,,0.00,weatherlink.com 1.10,2013-04-20 12:08:00,
2013-04-20 07:23:00,35.2,33.0,30.21,North,10,0.0,1.0,91,0.00,,,0.00,weatherlink.com 1.10,2013-04-20 12:23:00,
2013-04-20 07:38:00,40.1,37.0,30.22,North,9,0.0,0.0,87,0.00,,,0.00,weatherlink.com 1.10,2013-04-20 12:38:00,
2013-04-20 07:53:00,40.3,32.0,30.23,NW,314,0.0,3.0,71,0.00,,,0.00,weatherlink.com 1.10,2013-04-20 12:53:00,
2013-04-20 08:08:00,41.2,32.0,30.24,WNW,291,1.0,3.0,69,0.00,,,0.00,weatherlink.com 1.10,2013-04-20 13:08:00,
2013-04-20 08:23:00,41.0,33.0,30.25,West,281,2.0,4.0,72,0.00,,,0.00,weatherlink.com 1.10,2013-04-20 13:23:00,
2013-04-20 08:38:00,41.2,34.0,30.26,WSW,242,0.0,5.0,74,0.00,,,0.00,weatherlink.com 1.10,2013-04-20 13:38:00,
2013-04-20 08:53:00,42.5,33.0,30.26,WNW,293,1.0,5.0,70,0.00,,,0.00,weatherlink.com 1.10,2013-04-20 13:53:00,
2013-04-20 09:08:00,42.5,29.0,30.26,NNW,340,5.0,7.0,59,0.00,,,0.00,weatherlink.com 1.10,2013-04-20 14:08:00,
2013-04-20 09:23:00,42.5,29.0,30.26,West,259,2.0,5.0,60,0.00,,,0.00,weatherlink.com 1.10,2013-04-20 14:23:00,
2013-04-20 09:38:00,43.2,30.0,30.27,NW,312,3.0,6.0,60,0.00,,,0.00,weatherlink.com 1.10,2013-04-20 14:38:00,
2013-04-20 09:53:00,43.6,30.0,30.27,West,263,0.0,7.0,58,0.00,,,0.00,weatherlink.com 1.10,2013-04-20 14:53:00,
2013-04-20 10:08:00,43.7,30.0,30.27,NNW,331,1.0,7.0,58,0.00,,,0.00,weatherlink.com 1.10,2013-04-20 15:08:00,
2013-04-20 10:23:00,44.6,30.0,30.28,NE,43,4.0,7.0,57,0.00,,,0.00,weatherlink.com 1.10,2013-04-20 15:23:00,
2013-04-20 10:38:00,45.7,31.0,30.29,West,274,5.0,6.0,56,0.00,,,0.00,weatherlink.com 1.10,2013-04-20 15:38:00,
2013-04-20 10:53:00,45.2,29.0,30.29,East,95,0.0,5.0,53,0.00,,,0.00,weatherlink.com 1.10,2013-04-20 15:53:00,
2013-04-20 11:08:00,46.1,29.0,30.29,NNE,23,2.0,5.0,51,0.00,,,0.00,weatherlink.com 1.10,2013-04-20 16:08:00,
2013-04-20 11:23:00,46.0,29.0,30.29,ENE,61,0.0,9.0,52,0.00,,,0.00,weatherlink.com 1.10,2013-04-20 16:23:00,
2013-04-20 11:38:00,47.0,29.0,30.29,North,359,8.0,10.0,50,0.00,,,0.00,weatherlink.com 1.10,2013-04-20 16:38:00,
2013-04-20 11:53:00,47.5,30.0,30.29,NW,315,6.0,7.0,52,0.00,,,0.00,weatherlink.com 1.10,2013-04-20 16:53:00,
2013-04-20 12:08:00,47.3,30.0,30.28,NNW,336,6.0,8.0,51,0.00,,,0.00,weatherlink.com 1.10,2013-04-20 17:08:00,
2013-04-20 12:23:00,48.1,30.0,30.28,NW,304,5.0,8.0,49,0.00,,,0.00,weatherlink.com 1.10,2013-04-20 17:23:00,
2013-04-20 12:38:00,48.7,28.0,30.28,NNE,26,1.0,11.0,45,0.00,,,0.00,weatherlink.com 1.10,2013-04-20 17:38:00,
2013-04-20 12:54:00,48.7,30.0,30.28,NW,326,4.0,9.0,49,0.00,,,0.00,weatherlink.com 1.10,2013-04-20 17:54:00,
2013-04-20 13:09:00,49.5,28.0,30.28,WNW,295,3.0,9.0,43,0.00,,,0.00,weatherlink.com 1.10,2013-04-20 18:09:00,
2013-04-20 13:24:00,49.8,28.0,30.27,West,281,3.0,9.0,43,0.00,,,0.00,weatherlink.com 1.10,2013-04-20 18:24:00,
2013-04-20 13:39:00,50.5,30.0,30.27,NW,320,3.0,8.0,45,0.00,,,0.00,weatherlink.com 1.10,2013-04-20 18:39:00,
2013-04-20 13:54:00,51.4,29.0,30.27,NW,326,8.0,8.0,43,0.00,,,0.00,weatherlink.com 1.10,2013-04-20 18:54:00,
2013-04-20 14:09:00,51.2,30.0,30.27,NW,309,4.0,9.0,44,0.00,,,0.00,weatherlink.com 1.10,2013-04-20 19:09:00,
2013-04-20 14:24:00,52.1,30.0,30.26,NNW,329,6.0,13.0,43,0.00,,,0.00,weatherlink.com 1.10,2013-04-20 19:24:00,
2013-04-20 14:39:00,52.4,29.0,30.26,NW,326,3.0,7.0,40,0.00,,,0.00,weatherlink.com 1.10,2013-04-20 19:39:00,
2013-04-20 14:54:00,52.2,28.0,30.26,NW,314,6.0,10.0,40,0.00,,,0.00,weatherlink.com 1.10,2013-04-20 19:54:00,
2013-04-20 15:09:00,52.8,28.0,30.25,West,262,3.0,7.0,39,0.00,,,0.00,weatherlink.com 1.10,2013-04-20 20:09:00,
2013-04-20 15:24:00,53.3,29.0,30.25,SW,231,5.0,6.0,40,0.00,,,0.00,weatherlink.com 1.10,2013-04-20 20:24:00,
2013-04-20 15:39:00,53.9,32.0,30.25,SE,129,2.0,6.0,44,0.00,,,0.00,weatherlink.com 1.10,2013-04-20 20:39:00,
2013-04-20 15:54:00,54.8,31.0,30.24,NW,307,2.0,5.0,40,0.00,,,0.00,weatherlink.com 1.10,2013-04-20 20:54:00,
2013-04-20 16:09:00,54.3,29.0,30.24,NNW,335,4.0,6.0,38,0.00,,,0.00,weatherlink.com 1.10,2013-04-20 21:09:00,
2013-04-20 16:25:00,54.8,30.0,30.24,West,270,4.0,7.0,39,0.00,,,0.00,weatherlink.com 1.10,2013-04-20 21:25:00,
2013-04-20 16:39:00,54.3,27.0,30.24,WNW,302,3.0,8.0,35,0.00,,,0.00,weatherlink.com 1.10,2013-04-20 21:39:00,
2013-04-20 16:54:00,54.0,27.0,30.24,WNW,300,1.0,6.0,36,0.00,,,0.00,weatherlink.com 1.10,2013-04-20 21:54:00,
2013-04-20 17:09:00,54.0,26.0,30.24,NNW,348,4.0,6.0,34,0.00,,,0.00,weatherlink.com 1.10,2013-04-20 22:09:00,
2013-04-20 17:24:00,54.0,27.0,30.24,NNE,23,1.0,6.0,35,0.00,,,0.00,weatherlink.com 1.10,2013-04-20 22:24:00,
2013-04-20 17:40:00,55.3,26.0,30.24,WNW,297,1.0,4.0,33,0.00,,,0.00,weatherlink.com 1.10,2013-04-20 22:40:00,
2013-04-20 17:54:00,54.9,25.0,30.24,NW,323,3.0,5.0,31,0.00,,,0.00,weatherlink.com 1.10,2013-04-20 22:54:00,
2013-04-20 18:09:00,55.7,25.0,30.23,WNW,300,2.0,3.0,31,0.00,,,0.00,weatherlink.com 1.10,2013-04-20 23:09:00,
2013-04-20 18:24:00,56.6,26.0,30.23,SSE,162,1.0,4.0,31,0.00,,,0.00,weatherlink.com 1.10,2013-04-20 23:24:00,
2013-04-20 18:39:00,55.7,27.0,30.23,ENE,63,3.0,7.0,33,0.00,,,0.00,weatherlink.com 1.10,2013-04-20 23:39:00,
2013-04-20 18:54:00,53.7,28.0,30.24,ESE,120,2.0,5.0,37,0.00,,,0.00,weatherlink.com 1.10,2013-04-20 23:54:00,
2013-04-20 19:09:00,52.0,29.0,30.24,East,86,0.0,5.0,42,0.00,,,0.00,weatherlink.com 1.10,2013-04-21 00:09:00,
2013-04-20 19:24:00,51.1,29.0,30.24,East,82,2.0,6.0,43,0.00,,,0.00,weatherlink.com 1.10,2013-04-21 00:24:00,
2013-04-20 19:39:00,50.2,30.0,30.25,SE,134,3.0,4.0,47,0.00,,,0.00,weatherlink.com 1.10,2013-04-21 00:39:00,
2013-04-20 19:54:00,49.1,31.0,30.26,East,88,0.0,6.0,51,0.00,,,0.00,weatherlink.com 1.10,2013-04-21 00:54:00,
2013-04-20 20:09:00,47.9,32.0,30.26,ESE,102,0.0,2.0,54,0.00,,,0.00,weatherlink.com 1.10,2013-04-21 01:09:00,
2013-04-20 20:24:00,47.0,31.0,30.27,East,89,2.0,3.0,55,0.00,,,0.00,weatherlink.com 1.10,2013-04-21 01:24:00,
2013-04-20 20:39:00,47.3,31.0,30.28,ESE,113,2.0,3.0,54,0.00,,,0.00,weatherlink.com 1.10,2013-04-21 01:39:00,
2013-04-20 20:54:00,47.3,32.0,30.29,ESE,115,4.0,4.0,56,0.00,,,0.00,weatherlink.com 1.10,2013-04-21 01:54:00,
2013-04-20 21:09:00,47.5,32.0,30.30,ESE,120,0.0,8.0,55,0.00,,,0.00,weatherlink.com 1.10,2013-04-21 02:09:00,
2013-04-20 21:24:00,47.1,32.0,30.31,ESE,103,0.0,3.0,56,0.00,,,0.00,weatherlink.com 1.10,2013-04-21 02:24:00,
2013-04-20 21:39:00,46.6,32.0,30.31,ESE,113,1.0,4.0,58,0.00,,,0.00,weatherlink.com 1.10,2013-04-21 02:39:00,
2013-04-20 21:54:00,46.4,33.0,30.32,ESE,118,4.0,6.0,60,0.00,,,0.00,weatherlink.com 1.10,2013-04-21 02:54:00,
2013-04-20 22:09:00,46.3,34.0,30.32,ESE,108,6.0,10.0,63,0.00,,,0.00,weatherlink.com 1.10,2013-04-21 03:09:00,
2013-04-20 22:24:00,46.0,34.0,30.32,East,98,4.0,10.0,64,0.00,,,0.00,weatherlink.com 1.10,2013-04-21 03:24:00,
2013-04-20 22:39:00,45.5,35.0,30.32,SE,131,6.0,8.0,66,0.00,,,0.00,weatherlink.com 1.10,2013-04-21 03:39:00,
2013-04-20 22:54:00,45.2,34.0,30.32,SE,141,5.0,12.0,66,0.00,,,0.00,weatherlink.com 1.10,2013-04-21 03:54:00,
2013-04-20 23:09:00,44.8,34.0,30.32,ESE,120,6.0,10.0,67,0.00,,,0.00,weatherlink.com 1.10,2013-04-21 04:09:00,
2013-04-20 23:24:00,44.9,34.0,30.32,ESE,105,3.0,10.0,66,0.00,,,0.00,weatherlink.com 1.10,2013-04-21 04:24:00,
2013-04-20 23:39:00,44.9,33.0,30.32,ESE,108,3.0,10.0,64,0.00,,,0.00,weatherlink.com 1.10,2013-04-21 04:39:00,
2013-04-20 23:54:00,44.8,33.0,30.32,ESE,115,7.0,7.0,64,0.00,,,0.00,weatherlink.com 1.10,2013-04-21 04:54:00,